Weather History for LEVD - June, 2013

Change the Weather History Date:

Saturday, June 22, 2013

  Actual Average Record
Temperature  
Mean Temperature 63 °F -  
Max Temperature 80 °F - - ()
Min Temperature 46 °F - - ()
Degree Days  
Heating Degree Days 2    
Growing Degree Days 13 (Base 50)    
Moisture  
Dew Point 51 °F    
Average Humidity 57    
Maximum Humidity 100    
Minimum Humidity 32    
Precipitation  
Precipitation 0.00 in - - ()
Sea Level Pressure  
Sea Level Pressure 30.23 in    
Wind  
Wind Speed 3 mph ()    
Max Wind Speed 7 mph    
Max Gust Speed -    
T = Trace of Precipitation, MM = Missing Value Source: Averaged Metar Reports

Daily Weather History Graph

Daily Weather History Graph

Search for Another Location

Airport or City:

Trip Planner

Search our weather history database for the weather conditions in past years. The results will help you decide how hot, cold, wet, or windy it might be!

Date:

Astronomy

Jun. 22, 2013 Rise Set
Actual Time 6:45 AM CEST 9:57 PM CEST
Civil Twilight 6:10 AM CEST 10:31 PM CEST
Nautical Twilight 5:26 AM CEST 11:15 PM CEST
Astronomical Twilight 4:33 AM CEST 12:08 AM CEST
Moon 8:56 PM CEST (6/22) 5:44 AM CEST (6/22)
Length of Visible Light 16h 20m
Length of Day
15h 12m
Waxing Gibbous, 98% of the Moon is Illuminated
Jun 22
Waxing Gibbous
Jun 23
Full
Jun 30
Last Quarter
Jul 8
New
Jul 16
First Quarter

Hourly Weather History & Observations

Time (CEST) Temp. Dew Point Humidity Pressure Visibility Wind Dir Wind Speed Gust Speed Precip Events Conditions
7:00 AM 46.4 °F 46.4 °F 100% 30.24 in - NE 1.2 mph - N/A   Clear
7:30 AM 48.2 °F 48.2 °F 100% 30.24 in - Variable 1.2 mph - N/A   Clear
8:00 AM 50.0 °F 50.0 °F 100% 30.24 in - Variable 1.2 mph - N/A   Clear
8:30 AM 51.8 °F 51.8 °F 100% 30.24 in - ESE 4.6 mph - N/A   Clear
9:00 AM 55.4 °F 51.8 °F 88% 30.27 in - Variable 2.3 mph - N/A   Clear
9:30 AM 57.2 °F 53.6 °F 88% 30.27 in - Variable 2.3 mph - N/A   Clear
10:00 AM 59.0 °F 53.6 °F 82% 30.27 in - Variable 2.3 mph - N/A   Clear
10:30 AM 62.6 °F 51.8 °F 68% 30.27 in - Variable 1.2 mph - N/A   Clear
11:00 AM 64.4 °F 53.6 °F 68% 30.27 in - WNW 3.5 mph - N/A   Clear
11:30 AM 66.2 °F 53.6 °F 64% 30.27 in - NNW 1.2 mph - N/A   Clear
12:00 PM 68.0 °F 51.8 °F 56% 30.27 in - WNW 4.6 mph - N/A   Clear
12:30 PM 69.8 °F 50.0 °F 49% 30.27 in - WNW 5.8 mph - N/A   Clear
1:00 PM 71.6 °F 51.8 °F 50% 30.27 in - Variable 3.5 mph - N/A   Clear
1:30 PM 73.4 °F 50.0 °F 44% 30.24 in - WNW 6.9 mph - N/A   Clear
2:00 PM 73.4 °F 50.0 °F 44% 30.24 in - WNW 6.9 mph - N/A   Clear
2:30 PM 75.2 °F 51.8 °F 44% 30.24 in - NNW 6.9 mph - N/A   Clear
3:00 PM 77.0 °F 53.6 °F 44% 30.24 in - NW 5.8 mph - N/A   Clear
3:30 PM 77.0 °F 50.0 °F 39% 30.21 in - WNW 4.6 mph - N/A   Clear
4:00 PM 77.0 °F 50.0 °F 39% 30.21 in - NNW 4.6 mph - N/A   Clear
4:30 PM 77.0 °F 48.2 °F 36% 30.21 in - NW 6.9 mph - N/A   Clear
5:00 PM 78.8 °F 50.0 °F 36% 30.21 in - North 4.6 mph - N/A   Clear
5:30 PM 78.8 °F 51.8 °F 39% 30.21 in - WNW 6.9 mph - N/A   Clear
6:00 PM 80.6 °F 48.2 °F 32% 30.21 in - NW 2.3 mph - N/A   Clear
6:30 PM 78.8 °F 51.8 °F 39% 30.18 in - NNW 1.2 mph - N/A   Clear
7:00 PM 80.6 °F 50.0 °F 34% 30.18 in - Variable 2.3 mph - N/A   Clear
7:30 PM 80.6 °F 51.8 °F 37% 30.18 in - NW 3.5 mph - N/A   Clear
8:00 PM 78.8 °F 50.0 °F 36% 30.18 in - West 4.6 mph - N/A   Clear
8:30 PM 78.8 °F 53.6 °F 42% 30.18 in - SW 4.6 mph - N/A   Clear
9:00 PM 75.2 °F 55.4 °F 50% 30.15 in - SSW 3.5 mph - N/A   Clear
9:30 PM 71.6 °F 57.2 °F 60% 30.15 in - SSW 3.5 mph - N/A   Clear